SPACEBEE-140 (52399 NORAD) Tracking and Keplerian Element Data
This shows tracking and keplerian element data for the satellite.
Feedback or suggestion? Click here.
Element | Value |
Catalog | 52399 |
Name | SPACEBEE-140 |
Epoch Orbit | 807 |
Epoch Day | 166.49236415 |
Epoch Year | 2022 |
RAAN | 251.4416 |
Inclination | 97.4506 |
Eccentricity | 0.0009817 |
Argument of Perigee | 171.3653 |
Mean Anonmoly | 188.7749 |
Mean Motion | 15.13568041 |
Decay Rate | 0.00010573 |
L1 | 1 52399U 22047F 22166.49236415 .00010573 00000+0 59201-3 0 9999 |
L2 | 2 52399 97.4506 251.4416 0009817 171.3653 188.7749 15.13568041 8078 |
Live tracking and technical data element details for SPACEBEE-140 (NORAD 52399). SPACEBEE-140 can be tracked NOW for your location showing map with azimuth and elevation plus other details from your city location.
Track the satellite on the map from your city or location and see movement details for azimuth, elevation, latitude, longitude, range, height, and movement on the map or in text.
IsCatalogInMostPopularTable: catalog: 52399, numindb: 1
Update: records affected: 1
GetName: 52399 SPACEBEE-140
Hit Count: updated at: Mon, 27 Jun 2022 04:54:29 GMT